Location: Wiler
(46.4041°N, 7.7840°E)
Time: 03:43:34
(UTC+00:00)

CARTOSAT-1 - Pass Details

Date: 09 April 2020
Orbit: 616 x 619 km, 97.8° (Epoch: 26 May)

Event Time Altitude Azimuth Distance (km) Brightness Sun altitude
Exits shadow 20:39:31 44° 49° (NE) 856 4.1 -23.7°
Drops below altitude 10° 20:43:10 10° 358° (N) 1,996 6.7 -24.1°
Sets 20:45:25 0° 353° (N) 2,908 7.8 -24.4°
